Regional Weather Roundup
Issued by NWS

Home | Current Version | Previous Version | Text Only | Print | Product List | Glossary On
Versions: 1 2 3 4 5 6 7 8 9 10 11 12 13 14 15 16 17 18 19 20 21 22 23 24 25 26 27 28 29 30 31 32 33 34 35 36 37 38 39 40 41 42 43 44 45 46 47 48
000
ASUS44 KBMX 271510
RWRAL

ALABAMA REGIONAL WEATHER ROUNDUP
NATIONAL WEATHER SERVICE BIRMINGHAM AL
900 AM CST SAT DEC 27 2014

NOTE: "FAIR" INDICATES FEW OR NO CLOUDS BELOW 12,000 FEET
WITH NO SIGNIFICANT WEATHER AND/OR OBSTRUCTIONS TO VISIBILITY.

THE REMARK "TC" DENOTES TEMPERATURE IN DEGREES CELSIUS.

ALZ001>011-014-016>018-020-271600-
NORTH ALABAMA

CITY           SKY/WX    TMP DP  RH WIND       PRES   REMARKS
MUSCLE SHOALS  LGT RAIN  50  43  77 S9        30.27R
HUNTSVILLE     CLOUDY    51  41  68 SE13      30.29S
DECATUR        CLOUDY    50  41  71 S13       30.29R
HALEYVILLE     PTSUNNY   45  44  96 S7G16     30.29F
GADSDEN        CLOUDY    45  39  81 SE3       30.33S
$$

ALZ012-013-022-023-030>036-040>044-271600-
WEST CENTRAL ALABAMA

CITY           SKY/WX    TMP DP  RH WIND       PRES   REMARKS
TUSCALOOSA     LGT RAIN  50  47  89 E5        30.30S
$$

ALZ015-024>027-033>036-040>044-271600-
CENTRAL ALABAMA

CITY           SKY/WX    TMP DP  RH WIND       PRES   REMARKS
BIRMINGHAM     CLOUDY    47  45  93 CALM      30.34R
MONTGOMERY     CLOUDY    50  40  68 E3        30.34R
SHELBY CO ARPT CLOUDY    47  44  90 SE3       30.33R
MAXWELL AFB    DRIZZLE   48  41  76 N2        30.34R
GREENVILLE     CLOUDY    53  43  68 CALM      30.31R
$$

ALZ019-021-028-029-037-038-045>048-271600-
EAST CENTRAL ALABAMA

CITY           SKY/WX    TMP DP  RH WIND       PRES   REMARKS
ANNISTON       LGT RAIN  46  41  82 N7        30.34S
ALEXANDER CITY LGT RAIN  49  44  81 CALM      30.31F
AUBURN         CLOUDY    48  37  66 E6        30.36R
$$

ALZ051>064-271600-
SOUTHWEST ALABAMA

CITY           SKY/WX    TMP DP  RH WIND       PRES   REMARKS
MOBILE         CLOUDY    59  54  83 E7        30.23R
BROOKLEY FIELD CLOUDY    59  55  87 NE6       30.24S
EVERGREEN      CLOUDY    53  45  74 N7        30.28R
$$

ALZ049-050-065>069-271600-
SOUTHEAST ALABAMA

CITY           SKY/WX    TMP DP  RH WIND       PRES   REMARKS
DOTHAN         PTSUNNY   53  46  77 SE5       30.34R
OZARK          LGT RAIN  51  44  77 E7        30.29R
TROY           CLOUDY    53  46  77 CALM      30.32R
EUFAULA        CLOUDY    51  44  77 CALM      30.31R
$$


USA.gov is the U.S. government's official web portal to all federal, state and local government web resources and services.